GW1238 Weather Reports


time (UTC)temp
F
wind
direction
speed
knots
gust
knots
rain 1hr
in
rain 24hr
in
rain mn
in
humidity
%
barometer
mb
20260831132315 85 168 0.0 0.9 0.00 0.00 0.00 83 1024.7
20260831131814 84 155 0.0 0.9 0.00 0.00 0.00 81 1024.8
20260831131311 85 159 0.0 0.9 0.00 0.00 0.00 82 1024.6
20260831130805 84 165 0.0 0.9 0.00 0.00 0.00 84 1024.7
20260831130301 85 171 0.9 0.9 0.00 0.00 0.00 84 1024.8
20260831125800 83 147 0.0 0.9 0.00 0.00 0.00 85 1024.5
20260831125256 83 160 0.0 0.0 0.00 0.00 0.00 91 1024.5
20260831124755 81 153 0.0 0.9 0.00 0.00 0.00 92 1024.4
20260831124252 79 160 0.0 0.9 0.00 0.00 0.00 96 1024.5
20260831123752 79 163 0.0 0.0 0.00 0.00 0.00 98 1024.3
20260831123251 77 135 0.0 0.0 0.00 0.00 0.00 99 1024.4
20260831122745 76 59 0.0 0.0 0.00 0.00 0.00 99 1024.3
20260831122241 75 101 0.0 0.0 0.00 0.00 0.00 99 1024.4
20260831121740 75 82 0.0 0.9 0.00 0.00 0.00 99 1024.1
20260831121237 74 345 0.9 0.9 0.00 0.00 0.00 99 1024.1
20260831120733 74 17 0.9 1.7 0.00 0.00 0.00 99 1024.1
20260831120232 74 342 0.9 0.9 0.00 0.00 0.00 99 1024.0
20260831115728 73 336 0.9 0.9 0.00 0.00 0.00 99 1024.1
20260831115224 73 340 0.9 1.7 0.00 0.00 0.00 99 1024.2
20260831114723 73 331 1.7 1.7 0.00 0.00 0.00 99 1023.8
20260831114222 73 335 0.9 2.6 0.00 0.00 0.00 99 1024.0
20260831113718 73 347 0.9 1.7 0.00 0.00 0.00 99 1023.8
20260831113213 73 339 0.9 1.7 0.00 0.00 0.00 99 1023.9
20260831112712 73 341 0.9 1.7 0.00 0.00 0.00 99 1023.9
20260831112207 73 336 0.9 1.7 0.00 0.00 0.00 99 1023.8
20260831111703 73 352 0.9 1.7 0.00 0.00 0.00 99 1023.6
20260831111159 73 335 1.7 1.7 0.00 0.00 0.00 99 1023.7
20260831110654 72 344 1.7 1.7 0.00 0.00 0.00 99 1023.7
20260831110144 73 315 0.9 1.7 0.00 0.00 0.00 99 1023.3
20260831105643 73 344 0.9 1.7 0.00 0.00 0.00 99 1023.4
20260831105138 73 334 1.7 2.6 0.00 0.00 0.00 99 1023.3
20260831104633 73 332 1.7 1.7 0.00 0.00 0.00 99 1023.3
20260831104130 73 341 1.7 1.7 0.00 0.00 0.00 99 1023.4
20260831103624 73 350 1.7 1.7 0.00 0.00 0.00 99 1023.3
20260831103120 73 330 0.9 1.7 0.00 0.00 0.00 99 1023.2
20260831102615 73 353 0.9 0.9 0.00 0.00 0.00 99 1023.4
20260831102110 73 357 0.9 2.6 0.00 0.00 0.00 99 1023.1
20260831101609 73 338 0.9 1.7 0.00 0.00 0.00 99 1023.3
20260831101105 73 352 0.9 1.7 0.00 0.00 0.00 99 1023.1
20260831100600 72 340 1.7 1.7 0.00 0.00 0.00 99 1023.2
20260831100052 72 356 1.7 1.7 0.00 0.00 0.00 99 1022.9
20260831095549 73 336 1.7 2.6 0.00 0.00 0.00 99 1022.9
20260831095044 73 341 0.9 1.7 0.00 0.00 0.00 99 1023.0
20260831094541 73 348 0.9 1.7 0.00 0.00 0.00 99 1022.9
20260831094036 73 326 0.9 1.7 0.00 0.00 0.00 99 1022.9
20260831093531 73 341 0.9 1.7 0.00 0.00 0.00 99 1022.6
20260831093027 73 326 0.9 1.7 0.00 0.00 0.00 99 1022.5
20260831092522 72 340 1.7 2.6 0.00 0.00 0.00 99 1022.7
20260831092018 72 344 1.7 2.6 0.00 0.00 0.00 98 1022.7
20260831091513 73 349 0.9 1.7 0.00 0.00 0.00 98 1022.6
20260831091009 73 337 1.7 1.7 0.00 0.00 0.00 98 1022.5
20260831090504 73 336 0.9 1.7 0.00 0.00 0.00 98 1022.4
20260831090000 73 337 1.7 1.7 0.00 0.00 0.00 98 1022.6
20260831085455 73 338 1.7 1.7 0.00 0.00 0.00 98 1022.7
20260831084954 73 346 1.7 1.7 0.00 0.00 0.00 98 1022.6
20260831084450 73 337 1.7 1.7 0.00 0.00 0.00 98 1022.4
20260831083947 73 322 1.7 1.7 0.00 0.00 0.00 97 1022.4
20260831083442 73 339 1.7 1.7 0.00 0.00 0.00 97 1022.5
20260831082941 73 346 1.7 1.7 0.00 0.00 0.00 98 1022.5
20260831082436 73 0 0.9 2.6 0.00 0.00 0.00 97 1022.2
20260831081931 73 341 0.9 1.7 0.00 0.00 0.00 97 1022.5
20260831081427 73 352 0.9 1.7 0.00 0.00 0.00 97 1022.5
20260831080923 73 345 1.7 1.7 0.00 0.00 0.00 97 1022.4
20260831080417 73 328 0.9 1.7 0.00 0.00 0.00 97 1022.4
20260831075913 73 344 1.7 1.7 0.00 0.00 0.00 97 1022.5
20260831075408 73 331 1.7 2.6 0.00 0.00 0.00 96 1022.7
20260831074909 73 336 1.7 1.7 0.00 0.00 0.00 96 1022.5
20260831074408 74 340 1.7 1.7 0.00 0.00 0.00 97 1022.3
20260831073903 73 345 1.7 1.7 0.00 0.00 0.00 97 1022.3
20260831073402 74 349 0.9 0.9 0.00 0.00 0.00 97 1022.4
20260831072857 74 324 1.7 2.6 0.00 0.00 0.00 96 1022.2
20260831072353 73 341 0.9 1.7 0.00 0.00 0.00 97 1022.4
20260831071849 74 340 1.7 1.7 0.00 0.00 0.00 96 1022.4
20260831071348 74 30 0.9 1.7 0.00 0.00 0.00 96 1022.6
20260831070843 74 348 1.7 1.7 0.00 0.00 0.00 96 1022.5
20260831070342 74 339 1.7 2.6 0.00 0.00 0.00 96 1022.6
20260831065841 73 324 1.7 1.7 0.00 0.00 0.00 96 1022.5
20260831065339 74 1 0.9 2.6 0.00 0.00 0.00 96 1022.7
20260831064835 74 6 1.7 2.6 0.00 0.00 0.00 96 1022.5
20260831064330 74 338 1.7 1.7 0.00 0.00 0.00 96 1022.7
20260831063826 74 340 1.7 2.6 0.00 0.00 0.00 96 1022.7
20260831063327 74 330 1.7 1.7 0.00 0.00 0.00 96 1022.5
20260831062826 74 339 1.7 1.7 0.00 0.00 0.00 95 1022.4
20260831062322 74 332 1.7 1.7 0.00 0.00 0.00 96 1022.4
20260831061820 74 334 1.7 1.7 0.00 0.00 0.00 96 1022.4
20260831061320 74 336 1.7 1.7 0.00 0.00 0.00 95 1022.7
20260831060816 74 336 1.7 1.7 0.00 0.00 0.00 95 1022.9
20260831060316 74 338 1.7 1.7 0.00 0.00 0.00 95 1022.6
20260831055815 75 335 1.7 1.7 0.00 0.00 0.00 95 1022.7
20260831055311 75 342 0.9 1.7 0.00 0.00 0.00 95 1022.7
20260831054806 74 329 1.7 1.7 0.00 0.00 0.00 95 1022.7
20260831054301 75 335 1.7 1.7 0.00 0.00 0.00 95 1022.6
20260831053800 74 330 1.7 1.7 0.00 0.00 0.00 95 1022.5
20260831053258 75 331 1.7 1.7 0.00 0.00 0.00 95 1022.7
20260831052753 75 343 1.7 1.7 0.00 0.00 0.00 95 1022.6
20260831052252 75 341 0.9 1.7 0.00 0.00 0.00 95 1022.6
20260831051750 75 329 1.7 1.7 0.00 0.00 0.00 94 1022.5
20260831051249 75 325 1.7 1.7 0.00 0.00 0.00 94 1022.4
20260831050744 75 340 1.7 1.7 0.00 0.00 0.00 94 1022.4
20260831050243 75 332 1.7 1.7 0.00 0.00 0.00 94 1022.6
20260831045733 75 332 1.7 1.7 0.00 0.00 0.00 94 1022.7
20260831045232 76 334 1.7 1.7 0.00 0.00 0.00 93 1022.7
20260831044727 75 329 1.7 1.7 0.00 0.00 0.00 93 1023.1
20260831044222 75 338 1.7 1.7 0.00 0.00 0.00 93 1022.7
20260831043718 76 336 0.9 1.7 0.00 0.00 0.00 93 1022.7
20260831043213 75 331 1.7 1.7 0.00 0.00 0.00 92 1022.9
20260831042712 75 335 1.7 1.7 0.00 0.00 0.00 92 1022.9
20260831042208 75 335 1.7 1.7 0.00 0.00 0.00 92 1022.6
20260831041702 75 341 1.7 2.6 0.00 0.00 0.00 91 1022.5
20260831041156 75 336 1.7 1.7 0.00 0.00 0.00 92 1022.7
20260831040651 76 338 1.7 1.7 0.00 0.00 0.00 91 1022.7
20260831040150 76 334 1.7 1.7 0.00 0.00 0.00 91 1022.6
20260831035649 76 331 1.7 1.7 0.00 0.00 0.00 91 1022.5
20260831035149 76 341 1.7 1.7 0.00 0.00 0.00 90 1022.7
20260831034648 76 326 1.7 1.7 0.00 0.00 0.00 90 1022.7
20260831034144 76 338 1.7 1.7 0.00 0.00 0.00 91 1022.6
20260831033640 76 344 1.7 1.7 0.00 0.00 0.00 90 1022.6
20260831033135 76 336 1.7 2.6 0.00 0.00 0.00 90 1022.5
20260831032634 76 324 1.7 2.6 0.00 0.00 0.00 90 1022.7
20260831032130 76 334 1.7 2.6 0.00 0.00 0.00 90 1022.7
20260831031630 76 330 1.7 2.6 0.00 0.00 0.00 89 1022.6
20260831031129 77 337 1.7 1.7 0.00 0.00 0.00 89 1022.7
20260831030628 76 330 1.7 1.7 0.00 0.00 0.00 89 1022.5
20260831030127 77 338 0.9 1.7 0.00 0.00 0.00 89 1022.6
20260831025626 77 328 1.7 1.7 0.00 0.00 0.00 88 1022.7
20260831025121 77 332 1.7 1.7 0.00 0.00 0.00 88 1022.9
20260831024617 77 329 1.7 1.7 0.00 0.00 0.00 88 1022.9
20260831024116 77 352 0.9 1.7 0.00 0.00 0.00 87 1022.7
20260831023614 78 325 1.7 1.7 0.00 0.00 0.00 88 1022.6
20260831023114 77 341 1.7 1.7 0.00 0.00 0.00 87 1022.7
20260831022614 77 334 1.7 2.6 0.00 0.00 0.00 87 1022.6
20260831022109 77 331 1.7 2.6 0.00 0.00 0.00 87 1022.4
20260831021608 78 333 1.7 2.6 0.00 0.00 0.00 87 1022.5
20260831021104 78 340 1.7 1.7 0.00 0.00 0.00 87 1022.5
20260831020600 78 330 1.7 2.6 0.00 0.00 0.00 87 1022.5
20260831020055 78 335 1.7 2.6 0.00 0.00 0.00 87 1022.3
20260831015550 78 342 1.7 1.7 0.00 0.00 0.00 87 1022.4
20260831015045 78 342 1.7 1.7 0.00 0.00 0.00 86 1022.2
20260831014540 78 335 1.7 1.7 0.00 0.00 0.00 86 1022.2
20260831014036 79 349 1.7 2.6 0.00 0.00 0.00 86 1022.0
20260831013532 79 334 1.7 1.7 0.00 0.00 0.00 86 1021.9
20260831013031 79 341 1.7 1.7 0.00 0.00 0.00 85 1022.0
20260831012526 79 331 0.9 1.7 0.00 0.00 0.00 85 1022.0
20260831012021 80 322 1.7 1.7 0.00 0.00 0.00 85 1021.9
20260831011520 79 338 1.7 2.6 0.00 0.00 0.00 85 1021.8
20260831011016 79 341 1.7 1.7 0.00 0.00 0.00 85 1021.9
20260831010516 79 338 1.7 1.7 0.00 0.00 0.00 84 1021.7
20260831010013 79 337 1.7 2.6 0.00 0.00 0.00 84 1021.6
20260831005508 80 346 1.7 2.6 0.00 0.00 0.00 83 1021.7
20260831005006 80 334 1.7 1.7 0.00 0.00 0.00 82 1021.7
20260831004504 80 330 1.7 1.7 0.00 0.00 0.00 83 1021.5
20260831003959 81 333 0.9 1.7 0.00 0.00 0.00 82 1021.4
20260831003455 81 336 1.7 2.6 0.00 0.00 0.00 82 1021.4
20260831002954 81 334 1.7 1.7 0.00 0.00 0.00 81 1021.4
20260831002454 82 349 1.7 1.7 0.00 0.00 0.00 82 1021.4
20260831001949 82 340 1.7 1.7 0.00 0.00 0.00 81 1021.2
20260831001444 82 342 0.9 1.7 0.00 0.00 0.00 80 1021.3
20260831000941 83 339 0.9 0.9 0.00 0.00 0.00 77 1021.2
20260831000437 85 6 0.9 0.9 0.00 0.00 0.00 74 1021.3
20260830235935 87 122 1.7 1.7 0.00 0.00 0.00 68 1021.2
20260830235430 87 120 0.9 1.7 0.00 0.00 0.00 70 1021.5
20260830234925 87 119 1.7 1.7 0.00 0.00 0.00 67 1021.5
20260830234420 87 127 1.7 2.6 0.00 0.00 0.00 70 1021.3
20260830233916 87 126 1.7 3.5 0.00 0.00 0.00 69 1021.3
20260830233411 87 126 2.6 3.5 0.00 0.00 0.00 67 1021.4
20260830232907 87 133 2.6 3.5 0.00 0.00 0.00 65 1021.4
20260830232403 88 132 3.5 3.5 0.00 0.00 0.00 65 1021.4
20260830231859 88 131 2.6 3.5 0.00 0.00 0.00 68 1021.3
20260830231354 88 131 3.5 3.5 0.00 0.00 0.00 67 1021.2
20260830230853 88 133 3.5 5.2 0.00 0.00 0.00 64 1021.4
20260830230349 89 107 1.7 1.7 0.00 0.00 0.00 65 1021.4
20260830225848 89 31 0.9 1.7 0.00 0.00 0.00 66 1021.2
20260830225344 89 82 0.9 2.6 0.00 0.00 0.00 64 1021.4
20260830224838 90 115 1.7 1.7 0.00 0.00 0.00 63 1021.3
20260830224332 90 111 0.9 1.7 0.00 0.00 0.00 66 1021.2
20260830223829 89 93 1.7 1.7 0.00 0.00 0.00 63 1021.4
20260830223325 89 93 1.7 2.6 0.00 0.00 0.00 63 1021.2
20260830222824 90 119 0.9 1.7 0.00 0.00 0.00 63 1021.4
20260830222320 90 149 1.7 1.7 0.00 0.00 0.00 60 1021.3
20260830221815 89 116 1.7 1.7 0.00 0.00 0.00 63 1021.3
20260830221313 89 122 1.7 2.6 0.00 0.00 0.00 60 1021.3
20260830220812 89 137 1.7 2.6 0.00 0.00 0.00 59 1021.1
20260830220312 89 147 1.7 2.6 0.00 0.00 0.00 65 1021.5
20260830215810 89 116 1.7 1.7 0.00 0.00 0.00 64 1021.4
20260830215305 89 129 1.7 1.7 0.00 0.00 0.00 64 1021.3
20260830214800 89 145 1.7 2.6 0.00 0.00 0.00 63 1021.5
20260830214254 89 138 2.6 3.5 0.00 0.00 0.00 63 1021.4
20260830213754 89 143 1.7 2.6 0.00 0.00 0.00 65 1021.4
20260830213249 90 123 1.7 1.7 0.00 0.00 0.00 65 1021.4
20260830212745 89 115 2.6 3.5 0.00 0.00 0.00 66 1021.5
20260830212241 91 104 1.7 1.7 0.00 0.00 0.00 63 1021.4
20260830211740 92 148 0.0 0.0 0.00 0.00 0.00 58 1021.4
20260830211239 90 85 1.7 1.7 0.00 0.00 0.00 59 1021.4
20260830210735 90 120 0.9 1.7 0.00 0.00 0.00 58 1021.4
20260830210234 90 111 0.9 1.7 0.00 0.00 0.00 59 1021.6
20260830205731 90 103 1.7 1.7 0.00 0.00 0.00 63 1021.5
20260830205227 89 125 1.7 2.6 0.00 0.00 0.00 60 1021.5
20260830204722 90 104 1.7 2.6 0.00 0.00 0.00 61 1021.5
20260830204221 91 105 1.7 1.7 0.00 0.00 0.00 60 1021.7
20260830203717 91 114 0.9 1.7 0.00 0.00 0.00 56 1021.7
20260830203213 92 133 0.0 0.9 0.00 0.00 0.00 55 1021.6
20260830202712 94 134 0.0 0.9 0.00 0.00 0.00 54 1021.7
20260830202208 94 138 0.9 0.9 0.00 0.00 0.00 52 1021.9
20260830201707 104 161 0.0 0.0 0.00 0.00 0.00 43 1021.7
20260830201203 104 174 0.0 0.0 0.00 0.00 0.00 41 1021.9
20260830200658 103 161 0.0 0.0 0.00 0.00 0.00 46 1021.9
20260830200157 102 169 0.0 0.0 0.00 0.00 0.00 44 1022.1
20260830195653 101 173 0.0 0.9 0.00 0.00 0.00 47 1022.1
20260830195150 97 164 0.9 0.9 0.00 0.00 0.00 50 1022.2
20260830194649 96 173 0.0 0.9 0.00 0.00 0.00 53 1022.4
20260830194149 94 152 0.0 0.0 0.00 0.00 0.00 55 1022.4
20260830193644 92 142 0.0 0.9 0.00 0.00 0.00 57 1022.4
20260830193139 93 141 0.0 0.9 0.00 0.00 0.00 55 1022.5
20260830192634 96 155 0.0 0.0 0.00 0.00 0.00 53 1022.4
20260830192129 95 116 0.9 0.9 0.00 0.00 0.00 55 1022.6
20260830191624 94 143 0.0 0.0 0.00 0.00 0.00 54 1022.6
20260830191119 90 155 0.0 0.9 0.00 0.00 0.00 61 1023.0
20260830190615 89 139 0.0 0.0 0.00 0.00 0.00 61 1022.7
20260830190110 88 99 0.9 1.7 0.00 0.00 0.00 65 1023.1
20260830185608 87 105 1.7 2.6 0.00 0.00 0.00 66 1023.2
20260830185104 89 112 0.9 1.7 0.00 0.00 0.00 62 1023.2
20260830184603 94 208 1.7 1.7 0.00 0.00 0.00 56 1023.3
20260830184103 93 170 0.0 0.0 0.00 0.00 0.00 59 1023.0
20260830183558 90 152 0.0 0.0 0.00 0.00 0.00 62 1023.6
20260830183054 87 117 0.9 1.7 0.00 0.00 0.00 66 1023.5
20260830182549 87 147 0.9 1.7 0.00 0.00 0.00 66 1023.7
20260830182045 87 144 0.0 1.7 0.00 0.00 0.00 66 1023.8
20260830181542 87 42 1.7 3.5 0.00 0.00 0.00 68 1023.9
20260830181041 87 133 0.0 0.9 0.00 0.00 0.00 67 1024.0
20260830180540 90 145 0.0 0.9 0.00 0.00 0.00 64 1023.9
20260830180035 89 201 1.7 2.6 0.00 0.00 0.00 65 1024.0
20260830175533 87 148 0.0 0.9 0.00 0.00 0.00 69 1024.0
20260830175028 87 135 0.9 1.7 0.00 0.00 0.00 68 1024.0
20260830174524 87 128 0.9 1.7 0.00 0.00 0.00 68 1024.1
20260830174024 87 193 1.7 3.5 0.00 0.00 0.00 68 1024.2
20260830173520 87 184 0.9 1.7 0.00 0.00 0.00 69 1024.2
20260830173015 88 215 2.6 2.6 0.00 0.00 0.00 68 1024.5
20260830172512 88 219 1.7 2.6 0.00 0.00 0.00 68 1024.5
20260830172008 88 171 0.0 0.9 0.00 0.00 0.00 69 1024.4
20260830171504 88 137 0.0 0.0 0.00 0.00 0.00 68 1024.6
20260830171003 87 150 0.0 0.0 0.00 0.00 0.00 71 1024.6
20260830170457 85 148 0.0 0.9 0.00 0.00 0.00 72 1024.8
20260830165955 85 141 0.0 0.9 0.00 0.00 0.00 73 1024.8
20260830165452 84 131 0.9 1.7 0.00 0.00 0.00 73 1024.9
20260830164948 85 125 0.9 1.7 0.00 0.00 0.00 74 1025.0
20260830164443 87 180 0.9 1.7 0.00 0.00 0.00 71 1025.0
20260830163939 86 176 0.0 0.9 0.00 0.00 0.00 72 1024.9
20260830163436 86 203 1.7 1.7 0.00 0.00 0.00 73 1025.2
20260830162935 85 213 1.7 3.5 0.00 0.00 0.00 73 1025.2
20260830162431 87 196 2.6 2.6 0.00 0.00 0.00 74 1025.2
20260830161931 87 187 0.9 1.7 0.00 0.00 0.00 71 1025.1
20260830161431 86 161 0.0 0.9 0.00 0.00 0.00 75 1025.3
20260830160926 84 185 0.9 3.5 0.00 0.00 0.00 76 1025.3
20260830160423 84 171 0.9 2.6 0.00 0.00 0.00 76 1025.1
20260830155917 83 196 0.9 1.7 0.00 0.00 0.00 78 1025.2
20260830155414 83 196 1.7 1.7 0.00 0.00 0.00 80 1025.3
20260830154908 82 224 2.6 5.2 0.00 0.00 0.00 80 1025.3
20260830154404 82 218 2.6 3.5 0.00 0.00 0.00 81 1025.3
20260830153901 82 224 1.7 3.5 0.00 0.00 0.00 81 1025.4
20260830153356 82 226 2.6 2.6 0.00 0.00 0.00 80 1025.6
20260830152855 82 205 2.6 5.2 0.00 0.00 0.00 82 1025.3
20260830152350 82 201 1.7 2.6 0.00 0.00 0.00 82 1025.5
20260830151844 82 207 1.7 3.5 0.00 0.00 0.00 82 1025.4
20260830151343 82 211 2.6 3.5 0.00 0.00 0.00 82 1025.4
20260830150838 82 194 0.0 1.7 0.00 0.00 0.00 82 1025.4
20260830150338 81 220 2.6 2.6 0.00 0.00 0.00 83 1025.5
20260830145832 81 244 1.7 2.6 0.00 0.00 0.00 83 1025.5
20260830145327 81 211 1.7 2.6 0.00 0.00 0.00 83 1025.7
20260830144823 81 229 1.7 3.5 0.00 0.00 0.00 84 1025.6
20260830144319 81 216 2.6 2.6 0.00 0.00 0.00 83 1025.4
20260830143814 81 218 2.6 3.5 0.00 0.00 0.00 84 1025.3
20260830143314 81 194 1.7 2.6 0.00 0.00 0.00 83 1025.4
20260830142808 82 224 3.5 3.5 0.00 0.00 0.00 84 1025.4
20260830142305 82 193 3.5 3.5 0.00 0.00 0.00 85 1025.3
20260830141759 81 204 3.5 3.5 0.00 0.00 0.00 85 1025.4
20260830141254 81 209 2.6 3.5 0.00 0.00 0.00 84 1025.4
20260830140749 81 212 4.3 5.2 0.00 0.00 0.00 84 1025.4
20260830140249 81 185 2.6 2.6 0.00 0.00 0.00 84 1025.3
20260830135743 82 185 3.5 3.5 0.00 0.00 0.00 83 1025.1
20260830135239 82 200 3.5 5.2 0.00 0.00 0.00 82 1025.5
20260830134735 82 222 2.6 2.6 0.00 0.00 0.00 80 1025.3
20260830134230 83 213 1.7 1.7 0.00 0.00 0.00 80 1025.4
20260830133725 82 185 0.9 2.6 0.00 0.00 0.00 81 1025.5
20260830133221 83 196 0.9 1.7 0.00 0.00 0.00 80 1025.2
20260830132716 84 192 0.0 1.7 0.00 0.00 0.00 78 1025.2